Tracking 21475 objects as of 29-Sep-2020
HD Live streaming from Space Station
objects crossing your sky now

ORBCOMM FM 15

Track ORBCOMM FM 15 now!
10-day predictions
ORBCOMM FM 15 is classified as:


NORAD ID: 25418
Int'l Code: 1998-046F
Perigee: 787.1 km
Apogee: 790.3 km
Inclination: 45.0 °
Period: 100.5 minutes
Semi major axis: 7159 km
RCS: 0.6025 m2 (medium)
Launch date: August 2, 1998
Source: ORBCOMM (ORB)
Launch site: Pegasus launched from Eastern Range Air Space (ERAS)
aabbcc
Your satellite tracking list
Your tracking list is empty




NASA's NSSDC Master Catalog

Two Line Element Set (TLE):
1 25418U 98046F   20272.80650156 +.00000131 +00000-0 +98417-4 0  9999
2 25418 045.0005 021.0627 0002201 296.8321 203.1843 14.33045952156896
Source of the keplerian elements: AFSPC